Theta_e
316 316 316 314 312 310 316 322 318 323 323 310 311 307 311 309 312 313 310 311 308 306 307 305 308 308 311 316 314 308 309 301 297 301 308 309 305 300 301 297 295 297 296 302
316 316 315 314 312 310 309 315 321 325 320 307 310 314 315 316 311 311 312 311 313 313 308 304 308 310 316 317 314 309 309 303 297 298 303 310 305 307 305 303 302 298 296 299
316 316 315 314 312 311 310 318 316 318 318 316 311 312 312 311 317 315 315 313 313 311 308 309 307 309 314 316 314 325 315 304 299 296 301 305 304 307 308 303 297 299 302 307
316 316 316 315 312 311 316 322 314 315 310 310 311 312 312 309 309 314 317 316 314 311 306 307 310 313 315 318 321 312 307 300 303 305 308 309 307 307 308 304 304 299 303 306
316 316 316 315 313 311 323 313 312 314 312 313 313 309 310 311 313 313 312 310 313 312 309 310 307 309 309 310 314 312 308 301 304 304 309 308 306 309 309 309 310 308 307 308
316 316 316 316 313 313 317 320 320 316 311 312 310 310 311 311 311 313 313 311 310 311 310 311 310 309 310 311 310 309 308 307 304 298 309 307 300 307 309 311 312 310 305 310
316 316 316 317 315 313 313 319 317 314 309 311 310 313 312 310 311 309 311 311 308 312 315 314 312 310 309 310 312 311 305 304 304 300 302 294 305 310 312 311 313 313 312 315
316 316 316 317 316 314 313 319 317 313 307 311 313 312 312 311 312 311 312 314 315 315 312 305 302 301 303 306 309 308 308 304 299 296 297 302 307 310 308 306 309 315 312 320
315 315 316 316 317 314 313 316 324 316 310 311 313 312 312 310 309 309 313 317 317 315 307 303 297 294 300 300 303 307 307 306 303 298 295 294 304 314 318 315 302 319 317 315
315 314 314 316 317 315 312 314 321 316 308 313 311 309 308 312 310 307 311 312 312 312 303 301 299 299 305 299 299 300 302 305 300 300 298 305 313 318 321 301 307 317 325 322
315 314 314 315 317 317 313 312 319 316 309 310 313 314 311 311 311 307 310 309 310 310 305 303 303 302 304 303 305 305 301 300 300 302 300 296 317 318 310 313 317 319 317 323
315 314 313 315 317 316 315 312 317 319 313 311 315 315 316 315 315 310 311 308 309 310 305 306 306 302 304 302 297 308 301 305 301 304 303 314 320 318 321 319 316 319 318 319
315 313 313 314 316 316 313 310 313 314 311 310 311 312 318 320 319 318 308 310 313 312 315 309 307 302 305 299 300 303 306 310 303 305 311 311 317 321 322 321 319 320 321 319
315 313 313 313 315 315 313 308 312 312 311 303 310 319 315 320 319 318 316 313 315 313 313 308 306 302 308 302 304 303 306 306 304 303 309 311 317 319 319 319 321 321 323 322
314 313 312 313 314 314 312 310 312 317 311 303 305 311 314 315 317 316 316 314 312 311 307 306 304 307 306 306 305 302 307 306 302 301 308 309 310 315 322 318 316 318 319 319
313 312 312 313 313 313 310 311 319 315 316 306 299 311 311 317 320 317 317 315 314 313 308 308 309 312 308 301 299 307 308 311 313 309 313 312 315 317 317 315 318 319 319 318
313 311 311 312 312 309 305 306 311 310 310 306 301 303 314 315 316 314 313 317 315 313 310 308 308 308 309 304 299 307 310 312 313 314 313 310 313 311 315 315 317 319 320 320
312 311 311 312 311 309 306 312 310 311 308 309 299 301 307 316 310 308 316 313 313 312 310 311 308 309 309 301 307 310 313 313 312 312 312 311 312 314 314 316 316 316 317 316
310 311 311 309 308 308 314 316 312 313 311 302 303 300 302 314 311 312 312 313 305 313 307 308 309 305 302 306 309 312 313 310 309 311 311 311 311 312 314 315 315 314 316 318
310 308 305 303 314 316 317 311 309 308 308 307 299 305 300 307 309 308 309 310 306 301 307 312 306 303 310 312 312 312 312 313 313 310 309 311 311 312 313 314 315 315 317 318
306 303 304 315 316 312 310 305 302 305 302 306 305 304 301 312 306 307 311 306 306 299 305 304 302 303 311 313 313 315 316 316 315 316 316 316 316 314 313 314 315 316 317 318
307 305 306 308 310 306 301 300 305 303 300 307 305 307 309 313 316 308 308 304 304 297 309 303 298 308 313 315 314 315 316 316 316 318 317 317 318 318 318 317 317 317 317 319
307 304 302 304 304 293 295 294 300 302 307 307 310 307 310 313 312 306 305 300 299 308 302 300 304 312 314 314 316 315 316 317 317 317 317 317 319 321 320 318 319 319 319 320
301 300 290 297 296 298 300 300 302 307 312 309 309 308 307 310 306 306 300 304 305 299 297 299 309 313 314 316 316 315 314 314 315 315 316 317 319 322 323 321 320 319 318 319
301 302 292 297 302 305 306 307 306 310 312 310 308 308 308 305 304 305 304 301 298 301 301 306 313 316 317 316 316 315 313 313 313 314 315 317 322 322 320 322 322 321 320 319
302 303 299 303 303 303 305 306 306 311 311 311 310 306 304 302 304 301 300 300 299 303 309 315 317 317 316 317 316 315 314 313 313 316 318 321 322 321 321 322 322 321 320 320
301 300 305 305 305 303 304 308 309 314 308 305 307 301 301 308 303 302 308 303 306 311 312 316 319 317 317 317 316 315 314 314 315 317 319 319 319 321 321 319 320 322 322 323
Wind_Speed
24 26 27 27 27 32 8 5 3 6 7 2 4 5 6 3 5 9 5 3 8 8 9 7 4 11 3 11 9 7 5 4 4 9 9 3 8 3 3 4 9 3 3 6
25 27 28 27 24 18 6 4 4 5 5 3 4 7 12 7 1 4 9 9 9 13 9 7 7 7 6 19 3 3 4 6 5 10 9 8 3 5 7 5 5 4 3 6
24 26 29 31 30 20 3 4 3 2 3 5 9 8 7 12 11 1 4 3 7 9 9 10 7 10 13 7 6 6 8 6 5 6 5 3 1 7 9 7 4 5 5 9
23 25 27 31 36 34 2 2 4 4 5 7 10 7 8 10 12 11 3 1 5 10 5 7 8 13 15 20 2 6 8 6 7 10 9 7 2 4 7 4 2 3 2 11
20 23 25 28 34 39 3 5 6 7 9 10 8 7 5 8 15 11 10 11 15 12 9 6 7 8 7 7 11 11 3 5 5 8 10 11 8 5 7 7 6 8 6 6
18 21 22 24 26 23 6 6 7 4 8 8 10 5 9 12 12 7 13 13 10 10 12 11 9 7 8 14 13 11 5 4 4 5 7 10 7 8 10 0 2 4 7 6
17 18 20 21 20 16 3 4 5 4 6 9 11 14 11 11 9 6 10 9 6 8 11 9 10 11 14 13 14 8 8 6 2 6 4 9 7 8 8 14 11 9 23 11
15 17 18 19 19 18 4 5 4 4 6 10 12 14 12 10 9 9 9 8 3 8 8 5 7 5 7 11 11 13 9 4 4 4 6 9 8 13 11 11 15 15 17 8
13 15 16 17 18 18 6 5 4 4 6 1 16 9 9 6 8 7 9 7 7 3 2 3 4 3 7 5 7 4 7 9 6 4 8 13 3 18 19 12 3 10 8 2
12 14 16 17 17 17 6 5 8 3 5 6 10 6 6 6 6 5 4 10 5 4 3 4 5 6 7 5 5 7 4 3 2 3 2 4 11 16 11 1 6 24 5 6
10 12 14 15 15 16 9 7 7 4 4 13 8 11 9 10 7 4 9 8 8 5 3 3 4 3 5 5 6 6 3 3 3 4 3 5 14 7 7 5 6 12 22 11
9 10 12 12 13 13 13 4 8 8 5 9 21 21 19 19 15 7 5 5 5 3 3 5 4 6 4 6 5 8 6 2 2 4 2 5 2 5 6 4 1 6 10 22
8 8 10 11 11 11 9 6 7 8 5 10 7 10 15 14 14 8 4 4 3 5 3 3 3 3 3 4 5 7 7 7 3 6 3 3 1 8 1 1 2 8 7 13
8 8 9 10 11 10 9 5 6 6 5 5 4 13 7 9 4 7 6 4 5 4 3 4 4 3 3 4 4 2 4 7 5 5 5 6 8 4 6 4 5 6 9 7
7 7 9 10 11 12 8 6 6 6 2 5 10 18 13 13 9 9 6 2 4 3 3 4 5 3 3 4 3 4 4 3 3 3 5 3 6 9 8 6 7 8 7 9
7 7 8 9 10 11 5 2 3 6 5 4 5 7 10 8 0 2 2 4 4 4 4 3 3 4 3 3 4 4 12 13 7 3 7 9 7 6 12 12 8 14 12 12
6 6 8 9 8 3 4 3 3 6 6 3 6 6 4 7 4 2 3 2 1 1 2 2 3 3 2 3 10 10 6 5 7 6 7 9 9 9 11 13 17 16 17 18
6 7 8 10 11 10 6 2 13 3 4 3 4 6 5 5 4 2 0 1 2 2 3 1 2 2 2 5 6 3 4 2 5 6 8 12 15 16 14 14 14 17 15 12
4 6 9 5 3 3 2 4 9 3 3 3 4 4 3 4 4 2 2 1 2 3 2 3 2 4 6 7 8 5 2 4 9 12 13 13 16 17 16 14 14 16 14 8
0 2 2 2 1 9 5 1 3 3 3 4 4 5 5 5 2 2 2 0 3 2 4 3 4 6 9 2 4 4 6 10 11 16 17 14 16 14 15 16 16 15 11 10
2 2 3 2 3 2 4 3 4 4 4 5 5 8 7 4 2 1 1 2 3 3 2 1 3 1 2 2 5 7 10 10 15 15 17 17 17 15 16 17 17 15 14 12
0 1 4 3 3 3 3 4 4 5 4 4 4 4 4 1 3 2 2 3 2 5 1 2 3 3 2 4 7 10 13 13 16 15 17 19 19 18 18 17 17 16 15 13
0 1 3 2 3 1 5 5 4 3 4 3 2 2 3 1 1 3 1 3 5 2 3 3 1 1 2 5 7 11 13 13 16 16 15 20 20 20 18 18 16 15 15 8
2 4 3 5 6 6 6 7 3 4 2 3 4 1 2 2 3 2 3 4 3 3 3 4 2 3 4 5 6 10 15 17 18 19 19 20 19 16 14 14 13 13 12 7
4 4 5 8 9 7 2 2 4 3 1 1 1 1 3 2 2 3 3 4 4 4 2 3 4 4 5 6 7 11 13 16 16 17 16 18 18 11 7 8 10 10 8 6
4 6 6 8 5 5 4 3 4 1 2 2 2 2 2 4 4 5 6 4 2 2 3 2 3 4 5 5 7 10 13 16 16 15 15 17 10 9 7 5 6 7 7 7
5 6 8 10 8 5 5 4 2 1 2 2 1 4 4 2 3 4 1 3 3 7 4 1 2 3 4 5 7 9 13 17 15 14 14 11 8 11 14 4 3 4 4 5
Wind_Direction
344 345 346 349 350 340 2 314 266 165 165 165 216 234 246 255 334 341 274 278 288 298 313 319 300 233 145 300 331 358 342 186 232 255 280 256 204 234 296 59 310 300 234 267
346 346 346 348 354 3 317 303 263 167 172 255 270 292 296 344 212 340 355 324 2 348 333 342 336 337 194 218 270 111 323 340 353 329 334 20 346 28 22 349 25 21 333 276
348 347 346 346 346 350 216 288 301 138 200 242 276 316 352 344 352 236 282 339 2 320 319 317 313 309 310 188 151 144 93 264 222 223 259 236 341 10 11 67 42 331 336 8
349 349 350 350 347 343 221 250 10 14 332 336 328 344 338 314 310 309 30 265 286 324 332 299 8 10 343 336 168 188 153 221 280 294 316 326 88 338 341 316 79 255 6 340
350 350 353 356 354 337 64 13 355 345 297 303 319 283 274 329 10 15 352 354 329 329 38 41 335 355 1 287 341 346 286 267 282 290 291 287 283 240 257 281 17 356 316 295
349 352 354 359 7 352 359 344 330 268 288 303 296 37 6 352 353 334 342 1 344 334 21 353 331 309 288 280 291 304 295 346 356 285 329 328 312 211 230 114 140 100 306 206
348 352 353 358 8 18 290 303 301 289 298 321 348 355 1 3 356 332 315 313 309 301 347 349 331 307 290 276 273 260 283 302 306 263 312 292 267 273 234 216 160 175 257 260
346 350 352 354 358 2 313 296 346 323 306 321 327 354 341 330 296 281 263 265 78 27 3 327 309 302 283 254 245 260 248 257 252 244 253 267 273 273 274 280 219 214 222 187
342 347 349 350 354 357 327 278 1 313 311 13 318 323 323 347 356 324 340 6 50 32 248 271 250 281 288 283 313 327 249 241 209 240 236 262 334 339 335 327 315 197 216 229
336 341 344 348 351 354 333 284 313 329 291 242 353 346 321 304 325 299 14 335 325 298 263 250 261 272 278 281 287 287 324 323 196 264 252 330 335 355 317 298 307 319 303 94
325 332 339 344 349 353 354 283 295 311 296 290 257 338 334 335 330 315 344 336 8 326 323 294 347 329 348 357 323 356 6 330 341 331 268 268 7 14 50 256 292 340 339 346
311 323 330 338 344 350 345 283 339 340 273 275 299 284 266 258 270 286 317 299 303 292 339 356 342 329 314 345 305 352 21 75 178 103 232 214 218 166 148 193 110 318 311 339
294 310 320 329 334 343 356 297 302 301 286 290 244 245 261 214 226 222 240 297 343 339 349 314 289 315 330 308 297 346 344 28 358 16 199 7 195 82 39 29 332 298 312 326
280 297 310 319 324 327 332 305 304 288 300 285 290 15 341 319 249 193 223 262 334 318 335 293 278 287 263 299 279 309 309 340 306 285 32 9 83 150 184 194 188 231 279 287
269 289 305 316 320 319 298 259 263 273 329 307 302 303 278 239 234 212 202 234 277 277 280 258 265 290 360 316 314 289 265 17 14 283 343 275 310 340 254 257 255 242 241 269
254 279 297 314 322 328 289 218 100 6 356 288 298 338 276 267 89 126 193 228 240 213 222 263 311 348 17 262 275 324 323 323 44 342 323 302 295 318 329 339 300 290 273 250
242 276 293 304 309 312 267 322 318 348 314 268 290 282 214 243 152 193 228 165 162 42 303 259 254 257 88 252 267 270 270 7 327 329 347 322 320 303 308 301 299 297 295 246
237 272 293 300 293 272 276 214 232 217 267 258 281 275 268 164 210 198 94 146 143 209 232 266 233 284 170 262 251 174 174 301 298 294 297 287 290 292 284 279 285 294 299 284
247 299 302 287 213 246 84 112 116 179 293 283 257 270 330 5 6 95 52 55 277 246 218 220 140 206 220 232 242 227 199 286 293 298 288 289 281 283 278 277 275 277 283 284
336 297 260 267 240 118 133 156 184 195 239 223 262 296 285 329 27 344 357 231 271 284 235 142 208 241 247 80 32 352 282 270 287 300 303 291 282 282 282 285 282 270 274 279
207 223 234 349 103 258 219 232 219 182 224 210 236 220 243 307 15 15 11 292 274 266 263 253 258 244 95 139 281 285 299 309 305 298 289 284 280 273 268 266 265 267 261 262
271 312 285 275 220 239 259 243 229 210 253 199 214 232 196 26 339 23 31 289 321 250 349 263 258 96 106 328 317 320 314 303 295 291 288 286 278 271 262 261 259 260 255 262
271 233 267 187 224 168 228 221 201 219 206 301 27 326 131 117 72 72 296 254 238 287 235 241 194 226 357 338 324 313 306 305 298 292 295 294 285 274 249 253 246 253 252 242
199 199 267 227 206 229 204 252 276 286 87 84 270 264 185 221 179 128 243 225 252 256 236 230 9 31 325 318 312 309 314 307 300 305 304 297 288 282 247 236 235 244 248 239
235 224 232 225 244 279 279 296 312 282 290 337 354 326 171 166 262 222 261 241 239 224 315 309 330 305 306 304 313 317 316 312 314 311 305 299 302 293 268 231 221 228 243 222
243 237 243 267 258 272 268 299 258 12 297 273 144 235 242 216 236 197 219 239 259 342 268 290 304 324 320 325 320 318 317 322 321 315 308 303 320 327 260 256 200 200 213 244
234 237 234 253 273 277 277 286 311 1 324 265 291 243 226 272 229 226 259 335 297 314 332 92 28 337 335 321 315 323 328 332 328 329 329 334 340 3 11 346 307 315 291 270